Wind_Speed
77 68 53 42 33 19 4 7 19 26 33 40 50 57 53 49 44 41 45 47 44 40 38 36 33 25 27 32 37 36 37 33 33 36 36 35 34 28 24 25 27 32 42 58
75 65 50 37 26 15 2 15 19 24 27 29 50 59 57 53 46 37 38 39 37 36 36 33 26 24 28 30 24 20 22 22 29 30 23 10 11 11 8 6 7 15 30 55
73 62 47 34 21 15 2 12 15 18 24 34 56 65 59 53 47 41 36 35 37 38 34 28 22 25 22 21 22 23 19 21 27 20 36 39 37 32 22 20 6 5 16 34
74 63 47 34 21 13 2 15 21 24 24 36 50 63 64 57 50 46 41 38 38 36 33 25 24 23 21 21 24 22 21 19 22 27 37 44 44 43 39 36 32 17 4 14
74 62 46 33 22 9 6 10 18 21 25 28 38 54 60 58 54 49 44 41 39 38 31 28 22 24 23 24 23 20 14 11 20 22 38 41 43 48 46 39 30 19 14 9
76 62 50 35 24 10 4 5 17 24 26 29 36 48 62 61 57 53 46 44 43 36 33 30 23 24 27 24 23 16 15 4 11 20 23 28 34 37 40 39 36 30 24 26
78 63 51 35 24 13 6 1 10 21 32 36 38 50 62 63 59 55 50 47 44 38 35 30 26 28 29 23 25 18 10 13 9 11 15 20 23 28 32 38 39 39 33 32
76 64 52 36 25 16 5 3 9 18 25 34 41 52 60 65 62 58 53 49 44 41 37 30 29 32 29 31 26 17 9 4 11 8 16 27 34 20 23 26 28 29 35 33
73 63 52 36 23 15 6 3 7 13 22 29 37 44 57 64 63 59 57 52 47 44 39 33 32 32 28 30 24 15 9 2 7 4 9 16 23 24 25 25 19 18 19 21
69 62 50 36 25 16 9 7 10 12 17 24 31 39 47 57 62 60 56 52 50 46 39 34 33 31 30 30 25 19 16 10 5 2 7 6 11 16 19 20 23 26 15 9
65 58 50 37 25 17 11 8 10 13 17 23 30 37 42 47 53 56 55 54 50 45 39 38 30 28 29 31 30 18 23 19 14 12 6 5 4 8 13 14 18 19 19 14
63 57 47 35 25 17 13 11 11 11 15 22 27 35 40 43 48 53 55 51 46 42 39 38 28 30 34 30 32 29 28 23 21 17 14 15 14 14 13 13 15 16 18 13
58 54 47 35 25 17 15 16 14 15 13 21 29 37 40 44 48 49 47 47 44 41 38 33 26 28 31 31 30 37 32 24 30 24 24 22 21 18 21 19 16 19 18 8
55 53 44 37 27 19 17 22 19 20 20 23 31 35 40 46 50 50 48 45 40 33 27 27 24 27 28 27 29 33 32 28 27 25 29 31 27 27 26 27 20 9 8 3
54 50 43 35 27 19 19 25 25 24 24 28 34 38 44 48 50 50 45 40 41 34 26 22 22 19 18 20 22 21 22 26 28 30 25 25 25 25 22 20 16 12 6 2
51 47 40 32 25 17 18 26 27 26 30 32 39 43 48 53 51 48 46 43 37 30 26 23 19 13 16 18 19 16 18 21 23 23 20 19 15 14 15 13 10 6 5 4
50 47 38 31 22 15 16 25 28 32 34 37 42 48 54 56 52 50 47 41 36 35 31 22 17 15 14 14 13 14 17 17 17 16 16 15 13 11 7 7 6 7 6 4
47 44 36 28 20 14 18 25 31 36 40 41 48 55 58 58 54 50 46 40 38 35 30 26 22 18 15 14 12 11 13 15 16 14 13 14 15 19 15 11 10 10 9 7
45 42 33 24 16 10 18 26 32 35 42 47 54 60 60 59 54 50 45 40 38 36 32 27 24 20 17 16 12 10 9 12 14 14 16 18 20 19 15 13 11 10 9 8
44 39 29 22 16 13 15 21 30 33 42 52 58 63 62 59 56 51 46 41 38 35 32 29 27 22 19 18 15 12 10 11 15 17 16 15 13 13 12 12 13 12 11 12
43 41 27 20 12 8 6 15 25 31 44 53 59 65 64 60 57 52 47 42 40 36 33 30 28 28 24 19 17 15 16 16 15 15 15 15 16 17 17 17 16 15 16 17
43 40 27 15 10 3 4 9 23 34 48 55 58 65 65 63 59 55 50 43 42 38 35 32 28 26 26 24 21 19 20 19 18 17 17 19 24 23 23 21 19 18 20 22
43 40 28 17 6 5 9 6 21 34 46 53 56 64 66 64 61 56 52 45 43 39 37 35 33 31 28 27 27 26 24 22 21 21 23 25 26 25 24 23 24 25 26 29
41 38 33 18 6 8 15 5 21 31 38 44 51 61 66 65 62 58 54 47 44 41 40 37 36 33 33 30 29 28 28 28 26 26 27 27 27 28 28 29 31 32 33 37
35 33 32 22 12 11 17 24 25 31 35 39 46 56 66 65 62 58 54 52 49 51 48 42 40 37 35 33 30 31 31 32 31 30 30 31 31 31 34 36 39 41 41 38
31 29 27 24 16 12 18 24 26 30 33 35 37 46 61 67 63 62 58 55 58 51 46 48 47 45 43 40 36 36 36 36 35 36 35 35 34 34 37 32 25 26 28 29
27 27 24 22 19 14 13 20 28 31 33 34 35 40 54 66 69 66 65 66 62 50 44 44 48 49 48 46 42 40 42 42 41 41 42 43 43 39 34 32 32 31 32 32
Wind_Direction
351 352 351 352 351 335 322 210 184 181 198 196 192 189 191 195 197 198 203 208 212 215 222 229 239 250 262 273 287 292 299 307 314 318 290 309 311 312 301 281 264 241 221 214
352 354 352 354 349 344 306 183 172 176 187 182 178 189 192 195 195 192 197 198 201 209 218 225 233 249 262 283 282 289 303 323 333 338 358 349 15 16 5 344 276 236 218 216
354 355 353 352 351 1 290 183 172 174 181 180 183 194 194 194 192 191 189 185 194 208 214 220 228 247 270 261 273 288 297 333 332 0 28 31 31 31 43 44 25 181 203 210
356 355 355 350 349 8 285 183 165 166 180 185 185 193 191 193 193 192 190 191 201 210 214 215 230 242 249 252 276 288 303 335 1 18 38 34 38 33 32 27 25 41 110 203
355 355 355 350 345 8 352 210 175 171 175 183 190 189 192 194 193 193 194 196 205 212 210 211 234 232 244 248 270 275 335 351 17 24 38 39 39 41 37 42 46 39 29 87
352 355 354 351 347 344 47 211 194 172 168 169 180 186 188 193 193 194 197 202 211 209 208 218 232 228 233 242 262 265 322 345 39 31 39 48 40 37 43 49 47 55 78 98
349 354 353 350 344 348 20 250 203 189 181 179 177 182 187 192 194 194 200 206 210 209 213 224 232 232 233 236 234 275 314 64 80 35 20 55 52 45 47 51 44 41 49 67
348 351 351 348 341 342 330 255 205 193 186 186 184 183 186 190 194 196 199 207 209 213 219 228 237 233 220 234 238 256 291 55 96 48 28 48 58 55 53 53 53 45 45 46
348 348 349 346 334 316 288 251 231 209 197 188 189 190 188 190 194 196 200 206 213 218 222 226 231 217 216 225 219 233 231 204 95 69 24 15 32 49 52 37 54 54 64 58
348 345 347 343 335 320 293 226 216 208 201 195 191 187 189 194 195 198 200 206 213 218 225 227 214 210 210 218 226 214 226 204 192 303 78 10 6 7 6 9 7 15 43 56
347 344 344 339 331 310 284 228 220 206 199 191 189 187 187 189 195 197 201 209 214 223 220 213 209 204 208 218 223 229 214 212 226 273 301 322 244 345 342 355 4 5 352 1
344 342 341 334 323 306 271 229 209 204 203 194 194 186 185 185 186 192 199 205 210 210 208 210 205 209 214 222 222 226 223 233 228 253 273 294 300 302 314 313 323 347 351 339
343 339 335 330 320 299 257 232 206 203 194 200 195 187 181 181 182 186 188 192 199 201 208 213 212 217 222 226 232 233 234 236 239 245 261 272 294 303 315 314 299 314 327 336
340 338 332 327 318 292 248 233 207 201 201 203 200 191 180 179 181 184 183 187 197 198 199 214 213 213 216 225 227 227 227 227 240 252 258 263 276 289 297 312 296 322 333 313
337 337 329 325 314 291 251 229 211 199 196 200 199 188 181 181 179 177 181 192 194 196 199 201 206 206 209 216 213 210 224 232 238 247 248 251 260 269 282 297 307 311 307 236
335 336 328 325 313 295 257 234 215 193 192 196 195 190 185 180 178 181 187 192 191 187 190 192 192 195 210 217 219 211 213 220 227 235 232 238 241 254 267 283 283 280 262 227
335 336 330 324 313 289 254 229 214 195 190 192 194 190 185 181 182 188 193 190 193 192 192 190 190 202 206 218 220 218 226 231 233 234 237 235 235 241 184 198 204 201 195 178
337 336 330 323 310 281 253 231 216 203 188 191 193 192 187 185 186 193 196 191 196 199 196 191 194 194 193 207 210 224 228 224 219 220 213 204 187 171 169 163 169 168 166 172
339 339 331 325 308 271 241 230 223 212 195 188 193 193 192 189 192 195 195 192 197 201 199 197 202 199 199 204 190 202 204 205 197 200 190 189 184 185 175 171 175 174 178 191
342 344 337 336 302 266 236 233 227 216 201 190 192 195 195 193 196 198 197 194 198 200 203 206 209 206 203 205 202 200 196 183 173 178 180 181 182 187 190 195 205 217 228 235
344 351 347 343 304 262 226 232 222 212 202 198 191 195 197 198 200 201 201 197 200 201 203 209 213 214 209 205 207 216 210 204 203 202 199 194 198 205 213 221 230 243 254 263
342 352 352 350 289 247 163 209 217 209 203 201 195 196 197 202 204 205 205 201 201 205 208 210 210 210 216 214 216 225 230 223 215 217 219 219 211 221 232 243 256 265 270 272
339 349 355 357 313 154 121 187 218 215 212 208 200 198 199 203 207 208 210 206 203 208 214 215 213 212 215 213 217 218 218 214 212 216 224 227 227 237 248 257 266 274 277 280
333 343 352 359 314 221 144 176 227 223 221 220 206 201 203 206 209 211 211 212 211 211 216 218 221 220 220 224 226 228 227 223 222 224 228 234 240 247 255 263 269 273 278 281
326 336 345 351 338 251 224 188 215 225 227 225 219 208 205 209 211 215 214 217 216 216 215 219 225 226 225 227 232 239 241 235 236 241 246 250 252 257 264 268 273 274 279 285
315 324 337 338 341 301 255 235 213 221 227 230 227 218 211 212 214 218 218 220 225 222 217 219 225 231 232 229 231 236 240 245 248 249 251 253 253 258 268 270 271 276 280 286
305 309 320 328 326 319 279 259 250 234 232 229 223 223 219 215 217 220 223 223 226 226 221 223 226 229 235 238 236 232 239 242 247 250 252 254 254 256 255 263 268 273 280 285
Height
10293 10279 10265 10255 10248 10245 10243 10245 10249 10256 10265 10280 10299 10322 10336 10347 10358 10370 10381 10391 10402 10411 10418 10425 10431 10439 10440 10438 10437 10432 10426 10422 10412 10401 10385 10371 10356 10345 10336 10331 10332 10334 10340 10351
10294 10280 10266 10258 10252 10248 10247 10245 10249 10256 10268 10283 10301 10316 10330 10342 10356 10369 10378 10387 10398 10406 10412 10420 10428 10431 10431 10433 10429 10426 10420 10417 10407 10394 10378 10364 10352 10342 10334 10329 10327 10329 10333 10336
10298 10284 10270 10262 10255 10253 10252 10253 10253 10261 10269 10281 10293 10306 10323 10340 10355 10365 10376 10385 10393 10400 10408 10417 10423 10423 10425 10424 10423 10421 10418 10413 10405 10396 10375 10356 10350 10340 10332 10329 10328 10327 10330 10333
10297 10284 10273 10265 10258 10256 10257 10257 10256 10259 10268 10277 10289 10301 10318 10336 10351 10362 10373 10382 10389 10397 10405 10413 10417 10419 10421 10420 10420 10419 10417 10412 10404 10391 10376 10365 10356 10348 10342 10335 10331 10329 10331 10333
10298 10286 10277 10268 10263 10259 10260 10260 10260 10262 10268 10276 10287 10301 10318 10333 10346 10358 10368 10378 10385 10391 10402 10408 10412 10415 10417 10418 10418 10417 10416 10411 10404 10395 10384 10373 10367 10360 10354 10350 10345 10341 10337 10336
10296 10287 10275 10269 10265 10262 10264 10265 10265 10266 10270 10275 10283 10297 10311 10326 10340 10353 10364 10373 10378 10389 10397 10402 10406 10411 10414 10417 10417 10416 10416 10410 10406 10399 10393 10383 10378 10372 10369 10363 10359 10356 10350 10348
10295 10289 10280 10272 10268 10266 10265 10266 10265 10267 10270 10274 10284 10295 10308 10322 10335 10348 10359 10367 10375 10384 10392 10398 10402 10407 10410 10415 10415 10416 10415 10410 10406 10403 10397 10391 10386 10383 10380 10377 10373 10368 10364 10363
10298 10288 10280 10274 10270 10267 10266 10267 10269 10271 10274 10278 10284 10292 10303 10317 10330 10342 10353 10361 10370 10378 10387 10393 10397 10403 10408 10410 10414 10415 10413 10411 10408 10406 10401 10395 10393 10392 10390 10387 10387 10384 10380 10379
10300 10290 10282 10276 10273 10272 10271 10269 10269 10273 10276 10280 10286 10294 10302 10313 10326 10338 10348 10356 10366 10374 10382 10389 10394 10400 10404 10406 10412 10412 10412 10410 10409 10409 10406 10401 10398 10399 10399 10397 10397 10397 10397 10395
10303 10288 10284 10277 10274 10272 10271 10270 10272 10275 10278 10280 10284 10291 10300 10311 10321 10334 10345 10355 10361 10369 10378 10384 10390 10395 10400 10404 10407 10410 10410 10411 10410 10409 10409 10407 10405 10404 10403 10403 10403 10402 10403 10404
10302 10291 10282 10277 10273 10271 10271 10270 10272 10275 10276 10280 10284 10290 10298 10308 10320 10332 10344 10349 10358 10365 10373 10378 10386 10391 10396 10399 10403 10406 10409 10410 10410 10410 10410 10410 10408 10409 10409 10409 10408 10408 10409 10410
10300 10290 10285 10278 10272 10269 10269 10269 10271 10275 10277 10281 10286 10290 10297 10306 10316 10327 10336 10347 10355 10361 10369 10375 10383 10386 10391 10396 10399 10402 10406 10408 10409 10410 10410 10409 10409 10409 10410 10410 10410 10410 10411 10411
10299 10290 10280 10275 10271 10268 10267 10267 10269 10272 10276 10281 10285 10290 10296 10305 10315 10325 10334 10343 10351 10358 10365 10372 10378 10383 10387 10391 10395 10398 10402 10404 10407 10409 10409 10408 10409 10409 10409 10409 10408 10409 10409 10409
10295 10285 10276 10269 10265 10263 10264 10263 10266 10269 10274 10281 10286 10292 10297 10305 10313 10323 10332 10341 10350 10357 10364 10371 10375 10380 10383 10386 10390 10392 10395 10398 10402 10404 10405 10405 10406 10407 10407 10405 10404 10405 10407 10407
10289 10280 10270 10264 10259 10259 10260 10261 10264 10267 10273 10280 10287 10294 10300 10307 10314 10323 10332 10341 10348 10355 10362 10368 10372 10377 10378 10383 10386 10388 10391 10394 10396 10397 10400 10401 10403 10405 10405 10404 10404 10404 10405 10405
10282 10273 10263 10259 10254 10253 10254 10257 10260 10264 10269 10276 10285 10293 10300 10307 10316 10324 10331 10339 10347 10354 10360 10365 10370 10374 10377 10379 10380 10385 10386 10389 10390 10392 10394 10396 10399 10401 10402 10402 10403 10402 10402 10403
10275 10264 10257 10251 10249 10247 10249 10253 10257 10261 10265 10273 10282 10291 10299 10306 10315 10323 10330 10338 10346 10352 10357 10363 10367 10371 10373 10376 10379 10380 10380 10382 10385 10388 10390 10392 10394 10396 10398 10399 10400 10400 10401 10403
10270 10258 10250 10245 10242 10241 10242 10246 10251 10254 10259 10268 10279 10288 10296 10304 10312 10321 10329 10337 10343 10350 10356 10361 10366 10368 10371 10373 10375 10376 10377 10379 10381 10383 10386 10388 10391 10393 10395 10397 10398 10399 10401 10403
10264 10252 10244 10238 10236 10233 10235 10238 10244 10250 10256 10263 10273 10283 10294 10302 10309 10318 10327 10333 10340 10347 10353 10358 10362 10365 10368 10370 10373 10374 10375 10377 10379 10381 10383 10385 10388 10391 10393 10395 10397 10399 10400 10402
10256 10247 10238 10232 10229 10227 10229 10231 10238 10247 10253 10256 10266 10278 10288 10299 10305 10313 10322 10330 10337 10344 10350 10354 10359 10362 10365 10367 10370 10372 10374 10376 10378 10381 10384 10386 10388 10390 10392 10394 10395 10397 10398 10400
10251 10243 10235 10228 10224 10223 10224 10228 10236 10244 10249 10252 10259 10272 10284 10293 10301 10309 10318 10326 10333 10339 10346 10351 10356 10359 10361 10364 10367 10370 10373 10375 10377 10380 10381 10384 10386 10387 10389 10390 10392 10394 10395 10396
10247 10240 10233 10227 10222 10219 10220 10225 10233 10239 10242 10248 10256 10265 10277 10287 10296 10304 10312 10321 10329 10335 10342 10347 10353 10355 10357 10360 10363 10367 10370 10372 10375 10377 10379 10380 10382 10383 10384 10386 10388 10390 10391 10391
10241 10236 10232 10225 10221 10218 10219 10226 10232 10235 10237 10242 10252 10263 10272 10281 10291 10299 10306 10316 10324 10331 10337 10342 10348 10351 10352 10356 10359 10361 10365 10368 10370 10372 10374 10376 10378 10379 10380 10382 10383 10384 10385 10384
10239 10233 10229 10226 10223 10219 10219 10225 10229 10232 10235 10241 10251 10258 10267 10276 10283 10293 10301 10311 10318 10325 10329 10337 10340 10344 10348 10351 10354 10357 10360 10363 10365 10367 10368 10370 10372 10373 10374 10376 10376 10377 10377 10375
10236 10232 10229 10224 10223 10221 10217 10218 10223 10226 10231 10238 10247 10254 10262 10270 10280 10287 10296 10303 10309 10312 10319 10327 10331 10335 10340 10344 10347 10350 10353 10357 10359 10361 10362 10364 10365 10366 10367 10367 10368 10368 10368 10367
10235 10230 10226 10224 10221 10219 10219 10217 10218 10221 10226 10232 10241 10250 10258 10265 10273 10278 10287 10294 10295 10301 10310 10317 10321 10324 10328 10333 10338 10342 10345 10347 10350 10352 10354 10356 10357 10358 10358 10358 10359 10359 10359 10359
10232 10227 10224 10222 10218 10217 10216 10215 10217 10217 10220 10225 10233 10241 10248 10258 10265 10270 10272 10273 10281 10296 10306 10309 10312 10315 10319 10323 10328 10332 10336 10338 10341 10343 10344 10346 10347 10348 10349 10350 10350 10351 10351 10350